Location: Sweet Grass
(48.9965°N, 111.9649°W)
Time: 19:46:30
(UTC+00:00)

VELOX 1 - Visible Passes

Search period start: 14 April 2024 00:00
Search period end: 24 April 2024 00:00
Orbit: 607 x 619 km, 98.4° (Epoch: 14 April)

Date Brightness Start Highest point End Pass type
(mag) Time Alt. Az. Time Alt. Az. Time Alt. Az.
14 Apr ? 03:30:10 10° NNE 03:34:30 73° ESE 03:38:49 10° S visible
14 Apr ? 05:07:20 10° NNW 05:09:54 16° WNW 05:12:28 10° W visible
15 Apr ? 03:45:20 10° NNE 03:49:41 81° WNW 03:54:00 10° SSW visible
15 Apr ? 05:23:19 10° NNW 05:24:53 12° NW 05:26:27 10° WNW visible
16 Apr ? 04:00:33 10° N 04:04:49 58° WNW 04:09:03 10° SSW visible
17 Apr ? 04:15:50 10° N 04:19:54 41° WNW 04:23:58 10° SW visible
18 Apr ? 02:55:10 10° NNE 02:59:04 32° E 03:02:57 10° SSE visible
18 Apr ? 04:31:09 10° N 04:34:57 31° WNW 04:38:45 10° SW visible
19 Apr ? 03:10:07 10° NNE 03:14:17 44° E 03:18:25 10° S visible
19 Apr ? 04:46:33 10° N 04:49:58 23° WNW 04:53:22 10° WSW visible
20 Apr ? 03:25:08 10° NNE 03:29:26 63° ESE 03:33:43 10° S visible
20 Apr ? 05:02:03 10° NNW 05:04:55 18° WNW 05:07:48 10° WSW visible
21 Apr ? 03:40:12 10° NNE 03:44:33 87° E 03:48:53 10° SSW visible
21 Apr ? 05:17:45 10° NNW 05:19:50 13° WNW 05:21:56 10° W visible
22 Apr ? 03:55:19 10° N 03:59:38 67° WNW 04:03:55 10° SSW visible
22 Apr ? 05:34:32 10° NW 05:34:43 10° NW 05:34:55 10° NW visible
23 Apr ? 04:10:29 10° N 04:14:40 48° WNW 04:18:49 10° SW visible
